KD8YBJ Weather Reports


time (UTC)temp
F
wind
direction
speed
knots
gust
knots
rain 1hr
in
rain 24hr
in
rain mn
in
humidity
%
barometer
mb
20260509101038 53 201 6.1 7.8 0.00 0.00 0.00 84 1001.5
20260509100018 53 210 7.8 11.3 0.00 0.00 0.00 84 1001.6
20260509095018 53 195 7.0 11.3 0.00 0.00 0.00 85 1001.7
20260509094018 53 207 6.1 11.3 0.00 0.00 0.00 86 1001.9
20260509093018 53 206 7.0 12.2 0.00 0.00 0.00 85 1002.0
20260509092018 53 207 7.8 11.3 0.00 0.00 0.00 86 1002.2
20260509091018 53 206 7.0 11.3 0.00 0.00 0.00 86 1002.3
20260509090039 53 197 6.1 10.4 0.00 0.00 0.00 86 1002.4
20260509085019 54 214 6.1 9.6 0.00 0.00 0.00 85 1002.4
20260509084059 54 228 7.8 13.0 0.00 0.00 0.00 84 1002.4
20260509083039 54 218 6.1 9.6 0.00 0.00 0.00 84 1002.6
20260509082019 54 219 6.1 9.6 0.00 0.00 0.00 83 1002.7
20260509081019 54 229 6.1 10.4 0.00 0.00 0.00 82 1002.8
20260509080020 54 216 4.3 7.8 0.00 0.00 0.00 82 1002.8
20260509075019 55 218 5.2 8.7 0.00 0.00 0.00 80 1003.0
20260509074020 54 213 4.3 7.0 0.00 0.00 0.00 81 1003.1
20260509073040 54 219 4.3 7.0 0.00 0.00 0.00 82 1003.1
20260509072020 54 220 5.2 9.6 0.00 0.00 0.00 82 1003.3
20260509071020 55 220 6.1 9.6 0.00 0.00 0.00 81 1003.5
20260509070022 55 207 5.2 7.8 0.00 0.00 0.00 79 1003.6
20260509065020 55 211 5.2 10.4 0.00 0.00 0.00 78 1003.8
20260509064041 56 205 5.2 10.4 0.00 0.00 0.00 77 1003.9
20260509063021 56 220 5.2 9.6 0.00 0.00 0.00 74 1003.9
20260509062041 55 207 3.5 6.1 0.00 0.00 0.00 68 1003.9
20260509061022 54 201 2.6 4.3 0.00 0.00 0.00 60 1004.3
20260509060021 53 176 1.7 2.6 0.00 0.00 0.00 55 1004.4
20260509055021 53 194 2.6 3.5 0.00 0.00 0.00 54 1004.5
20260509054022 53 185 1.7 3.5 0.00 0.00 0.00 53 1004.6
20260509053023 52 160 1.7 3.5 0.00 0.00 0.00 53 1004.6
20260509052021 52 185 0.9 2.6 0.00 0.00 0.00 54 1004.6
20260509051022 52 49 0.0 1.7 0.00 0.00 0.00 54 1004.6
20260509050024 52 204 0.0 0.9 0.00 0.00 0.00 51 1004.7
20260509045022 52 196 1.7 2.6 0.00 0.00 0.00 50 1004.7
20260509044022 51 193 1.7 2.6 0.00 0.00 0.00 49 1004.7
20260509043022 51 195 0.9 1.7 0.00 0.00 0.00 50 1004.8
20260509042022 50 220 0.9 1.7 0.00 0.00 0.00 49 1004.9
20260509041022 50 188 0.0 0.9 0.00 0.00 0.00 50 1005.1
20260509040023 50 231 0.0 0.0 0.00 0.00 0.00 49 1005.3
20260509035023 50 208 0.0 1.7 0.00 0.00 0.00 48 1005.4
20260509034023 51 0.0 0.0 0.00 0.00 0.00 45 1005.6
20260509033023 52 255 0.0 0.0 0.00 0.00 0.00 44 1005.6
20260509032045 53 198 0.0 1.7 0.00 0.00 0.00 41 1005.7
20260509031024 52 188 0.9 2.6 0.00 0.00 0.00 41 1005.8
20260509030024 53 196 0.9 2.6 0.00 0.00 0.00 39 1005.9
20260509025024 53 202 0.9 1.7 0.00 0.00 0.00 40 1005.9
20260509024025 53 194 0.0 1.7 0.00 0.00 0.00 38 1006.0
20260509023025 53 193 0.9 1.7 0.00 0.00 0.00 37 1006.1
20260509022024 54 188 0.9 2.6 0.00 0.00 0.00 37 1006.2
20260509021026 54 183 1.7 2.6 0.00 0.00 0.00 37 1006.3
20260509020025 54 194 1.7 2.6 0.00 0.00 0.00 37 1006.3
20260509015025 54 213 0.9 2.6 0.00 0.00 0.00 38 1006.3
20260509014041 55 213 0.9 1.7 0.00 0.00 0.00 35 1006.0
20260509013045 55 218 0.9 1.7 0.00 0.00 0.00 35 1006.0
20260509012045 55 237 0.9 1.7 0.00 0.00 0.00 37 1006.0
20260509011026 55 206 0.0 0.9 0.00 0.00 0.00 36 1006.1
20260509010026 56 238 0.0 0.9 0.00 0.00 0.00 34 1006.1
20260509005026 57 242 0.0 0.9 0.00 0.00 0.00 35 1006.0
20260509004027 58 0.0 0.0 0.00 0.00 0.00 32 1006.0
20260509003018 58 229 0.0 0.9 0.00 0.00 0.00 30 1006.1
20260509002018 59 196 0.9 2.6 0.00 0.00 0.00 29 1006.1
20260509001016 59 185 2.6 4.3 0.00 0.00 0.00 27 1006.2
20260509000015 59 193 1.7 2.6 0.00 0.00 0.00 28 1006.3
20260508235015 60 190 3.5 6.1 0.00 0.00 0.00 27 1006.4
20260508234016 60 188 2.6 4.3 0.00 0.00 0.00 28 1006.6
20260508233036 60 215 3.5 8.7 0.00 0.00 0.00 28 1006.7
20260508232016 61 194 2.6 4.3 0.00 0.00 0.00 28 1006.7
20260508231016 61 207 2.6 6.1 0.00 0.00 0.00 29 1006.7
20260508230018 61 223 3.5 7.0 0.00 0.00 0.00 29 1006.9
20260508225017 61 211 4.3 7.0 0.00 0.00 0.00 29 1006.9
20260508224017 61 220 3.5 7.0 0.00 0.00 0.00 29 1006.9
20260508223017 61 200 4.3 6.1 0.00 0.00 0.00 29 1007.0
20260508222017 61 213 3.5 7.8 0.00 0.00 0.00 30 1007.2
20260508221017 60 220 4.3 7.8 0.00 0.00 0.00 31 1007.3
20260508220017 60 217 5.2 8.7 0.00 0.00 0.00 30 1007.4
20260508215019 60 226 5.2 8.7 0.00 0.00 0.00 30 1007.3
20260508214018 61 218 5.2 9.6 0.00 0.00 0.00 30 1007.3
20260508213018 61 212 6.1 10.4 0.00 0.00 0.00 30 1007.4
20260508212018 61 215 5.2 10.4 0.00 0.00 0.00 30 1007.4
20260508211015 61 218 5.2 8.7 0.00 0.00 0.00 30 1007.5
20260508210016 61 223 5.2 9.6 0.00 0.00 0.00 32 1007.6
20260508205015 60 214 5.2 9.6 0.00 0.00 0.00 33 1007.8
20260508204016 61 218 5.2 10.4 0.00 0.00 0.00 33 1007.9
20260508203016 60 213 4.3 7.8 0.00 0.00 0.00 36 1008.0
20260508202016 60 214 6.1 9.6 0.00 0.00 0.00 35 1008.1
20260508201016 60 212 6.1 10.4 0.00 0.00 0.00 37 1008.2
20260508200016 60 208 5.2 8.7 0.00 0.00 0.00 36 1008.3
20260508195017 60 204 4.3 7.8 0.00 0.00 0.00 37 1008.4
20260508194017 59 211 6.1 11.3 0.00 0.00 0.00 37 1008.6
20260508193019 58 209 7.0 10.4 0.00 0.00 0.00 39 1008.8
20260508192017 59 210 7.0 10.4 0.00 0.00 0.00 37 1008.8
20260508191019 60 222 4.3 7.8 0.00 0.00 0.00 38 1008.7
20260508190017 59 223 5.2 8.7 0.00 0.00 0.00 42 1008.8
20260508185017 58 208 7.0 10.4 0.00 0.00 0.00 40 1008.9
20260508184018 58 222 5.2 11.3 0.00 0.00 0.00 45 1008.9
20260508183038 58 208 5.2 8.7 0.00 0.00 0.00 42 1009.1
20260508182018 59 215 5.2 8.7 0.00 0.00 0.00 37 1009.2
20260508181015 59 211 6.1 10.4 0.00 0.00 0.00 37 1009.3
20260508180037 59 217 4.3 9.6 0.00 0.00 0.00 37 1009.4
20260508175015 59 219 5.2 9.6 0.00 0.00 0.00 34 1009.5
20260508174015 59 209 6.1 8.7 0.00 0.00 0.00 32 1009.6
20260508173016 58 212 4.3 8.7 0.00 0.00 0.00 37 1009.8
20260508172017 59 221 5.2 7.8 0.00 0.00 0.00 34 1009.9
20260508171016 59 215 7.0 11.3 0.00 0.00 0.00 33 1009.9
20260508170016 59 213 6.1 10.4 0.00 0.00 0.00 35 1010.0
20260508165016 59 209 5.2 9.6 0.00 0.00 0.00 38 1010.2
20260508164038 59 212 6.1 10.4 0.00 0.00 0.00 36 1010.3
20260508163019 58 212 6.1 9.6 0.00 0.00 0.00 38 1010.3
20260508162017 57 211 5.2 10.4 0.00 0.00 0.00 40 1010.2
20260508161017 57 223 5.2 9.6 0.00 0.00 0.00 40 1010.0
20260508160017 57 209 5.2 9.6 0.00 0.00 0.00 40 1010.2
20260508155017 56 216 5.2 10.4 0.00 0.00 0.00 45 1010.5
20260508154017 56 213 3.5 7.0 0.00 0.00 0.00 50 1010.6
20260508153018 56 212 4.3 7.8 0.00 0.00 0.00 53 1010.5
20260508152018 55 182 3.5 8.7 0.00 0.00 0.00 60 1010.4
20260508151018 55 199 3.5 7.0 0.00 0.00 0.00 65 1010.4
20260508150015 54 217 5.2 8.7 0.00 0.00 0.00 68 1010.5
20260508145015 54 212 5.2 10.4 0.00 0.00 0.00 67 1010.8
20260508144015 53 193 4.3 8.7 0.00 0.00 0.00 67 1010.5
20260508143035 53 212 3.5 7.0 0.00 0.00 0.00 70 1010.6
20260508142016 53 209 4.3 7.8 0.00 0.00 0.00 69 1010.7
20260508141016 53 217 3.5 7.0 0.00 0.00 0.00 69 1010.3
20260508140017 53 208 3.5 7.0 0.00 0.00 0.00 67 1010.5
20260508135057 52 190 3.5 7.0 0.00 0.00 0.00 67 1010.7
20260508134017 51 228 3.5 6.1 0.00 0.00 0.00 70 1010.6
20260508133017 50 219 4.3 7.8 0.00 0.00 0.00 70 1010.6
20260508132017 49 215 2.6 5.2 0.00 0.00 0.00 72 1010.7
20260508131039 48 216 2.6 4.3 0.00 0.00 0.00 73 1010.8
20260508130017 47 211 2.6 4.3 0.00 0.00 0.00 75 1010.8
20260508125018 46 235 2.6 4.3 0.00 0.00 0.00 77 1010.9
20260508124040 44 238 2.6 3.5 0.00 0.00 0.00 82 1010.9
20260508123016 42 235 1.7 3.5 0.00 0.00 0.00 90 1010.8
20260508122021 40 222 0.9 1.7 0.00 0.00 0.00 96 1010.8
20260508121015 38 218 0.9 1.7 0.00 0.00 0.00 97 1010.9
20260508120015 37 273 0.0 1.7 0.00 0.00 0.00 97 1010.9
20260508115016 36 269 0.0 0.9 0.00 0.00 0.00 97 1010.9
20260508114016 35 320 0.0 1.7 0.00 0.00 0.00 96 1010.8
20260508113016 34 0.0 0.0 0.00 0.00 0.00 96 1010.8
20260508112016 33 260 0.0 0.9 0.00 0.00 0.00 96 1010.9
20260508111016 33 0.0 0.0 0.00 0.00 0.00 96 1011.0
20260508110016 33 295 0.0 0.9 0.00 0.00 0.00 96 1011.0
20260508105017 33 212 0.0 0.9 0.00 0.00 0.00 96 1010.9
20260508104017 33 0.0 0.0 0.00 0.00 0.00 95 1010.8
20260508103018 33 14 0.0 0.9 0.00 0.00 0.00 95 1010.9
20260508102017 33 10 0.0 0.0 0.00 0.00 0.00 95 1010.9